Location: Poughquag
(41.6090°N, 73.6820°W)
Time: 07:53:58
(UTC-05:00)

DIWATA 2B (PO-101) - Pass Details

Date: 22 November 2025
Orbit: 563 x 574 km, 98.1° (Epoch: 07 December)

Event Time Altitude Azimuth Distance (km) Brightness Sun altitude
Rises 05:25:27 0° 175° (S) 2,755 ? -16.1°
Reaches altitude 10° 05:27:37 10° 179° (S) 1,861 ? -15.7°
Maximum altitude 05:31:35 57° 259° (WSW) 669 ? -15.0°
Drops below altitude 10° 05:35:34 10° 339° (NNW) 1,870 ? -14.2°
Enters shadow 05:35:58 - 340° (NNW) 2,027 ? -14.2°
